Location: Enid
(36.3960°N, 97.8780°W)
Time: 00:05:30
(UTC-05:00)

HST - Visible Passes

Search period start: 28 August 2014 00:00
Search period end: 07 September 2014 00:00
Orbit: 547 x 551 km, 28.5° (Epoch: 27 August)

Date Brightness Start Highest point End Pass type
(mag) Time Alt. Az. Time Alt. Az. Time Alt. Az.
28 Aug 2.4 05:52:37 17° SSW 05:53:33 18° SSW 05:56:27 10° SSE visible
29 Aug 2.6 05:46:28 15° SSW 05:46:30 15° SSW 05:49:00 10° SSE visible
30 Aug 3.0 05:40:25 12° S 05:40:25 12° S 05:41:16 10° S visible
05 Sep 3.4 22:03:21 10° SW 22:03:39 11° SW 22:03:39 11° SW visible
06 Sep 2.9 20:16:52 10° S 20:18:44 13° SSE 20:20:37 10° SE visible
06 Sep 3.0 21:56:09 10° SW 21:57:18 16° SW 21:57:18 16° SW visible
